CW8374 Weather Reports


Display with metric or nautical units.
time (UTC)temp
F
wind
direction
speed
MPH
gust
MPH
rain 1hr
in
rain 24hr
in
rain mn
in
humidity
%
barometer
mb
20210304225023 38 50 3.0 8.0 0.00 0.01 0.01 74 1027.6
20210304224405 38 51 2.0 6.0 0.00 0.01 0.01 74 1027.6
20210304223911 38 54 3.0 7.0 0.00 0.01 0.01 74 1027.6
20210304223405 38 60 3.0 10.0 0.00 0.01 0.01 74 1027.7
20210304222032 39 43 3.0 9.0 0.00 0.01 0.01 74 1027.6
20210304221405 39 61 3.0 7.0 0.00 0.01 0.01 74 1027.6
20210304220910 39 46 6.0 12.0 0.00 0.01 0.01 74 1027.4
20210304220417 39 65 6.0 13.0 0.00 0.01 0.01 74 1027.4
20210304215241 39 56 6.0 12.0 0.00 0.01 0.01 73 1027.3
20210304213404 39 67 6.0 13.0 0.00 0.01 0.01 73 1027.1
20210304211933 39 70 6.0 12.0 0.00 0.01 0.01 74 1026.6
20210304211404 39 60 5.0 12.0 0.00 0.01 0.01 74 1026.6
20210304210904 39 42 4.0 12.0 0.00 0.01 0.01 74 1026.6
20210304210406 39 57 7.0 15.0 0.00 0.01 0.01 74 1026.6
20210304203908 40 53 5.0 12.0 0.00 0.01 0.01 74 1026.4
20210304203635 40 44 5.0 14.0 0.00 0.01 0.01 74 1026.4
20210304201404 41 41 6.0 12.0 0.00 0.01 0.01 73 1026.3
20210304200443 42 60 5.0 12.0 0.00 0.01 0.01 73 1026.0
20210304195128 41 57 3.0 8.0 0.00 0.01 0.01 73 1025.9
20210304194404 41 49 4.0 9.0 0.00 0.01 0.01 73 1025.9
20210304193904 41 73 4.0 10.0 0.00 0.01 0.01 74 1025.8
20210304193407 41 72 4.0 12.0 0.00 0.01 0.01 74 1025.8
20210304192110 41 62 5.0 12.0 0.00 0.01 0.01 74 1025.7
20210304191408 41 43 3.0 8.0 0.00 0.01 0.01 74 1025.6
20210304190412 41 63 4.0 12.0 0.00 0.01 0.01 73 1025.5
20210304184405 42 70 4.0 9.0 0.00 0.01 0.01 73 1025.3
20210304183905 42 61 4.0 10.0 0.00 0.01 0.01 73 1025.3
20210304181414 42 58 7.0 14.0 0.00 0.01 0.01 72 1024.9
20210304180905 42 44 7.0 16.0 0.01 0.01 0.01 71 1024.9
20210304180404 42 48 8.0 17.0 0.01 0.01 0.01 71 1024.8
20210304174953 42 36 6.0 15.0 0.01 0.01 0.01 70 1024.6
20210304174406 42 45 6.0 13.0 0.01 0.01 0.01 70 1024.5
20210304173412 42 56 10.0 17.0 0.01 0.01 0.01 70 1024.3
20210304172059 43 44 7.0 16.0 0.01 0.01 0.01 70 1024.3
20210304171405 43 13 3.0 7.0 0.01 0.01 0.01 71 1024.2
20210304170932 43 343 2.0 3.0 0.00 0.00 0.00 71 1024.2
20210304170634 43 343 3.0 6.0 0.00 0.00 0.00 71 1024.2
20210304165333 43 344 4.0 7.0 0.00 0.00 0.00 72 1024.1
20210304164031 44 306 5.0 8.0 0.00 0.00 0.00 73 1023.9
20210304162709 44 319 5.0 10.0 0.00 0.00 0.00 73 1023.9
20210304161040 44 305 6.0 12.0 0.00 0.00 0.00 73 1023.8
20210304160441 44 317 5.0 12.0 0.00 0.00 0.00 73 1023.8
20210304154413 45 327 6.0 10.0 0.00 0.00 0.00 72 1023.8
20210304153448 47 305 5.0 10.0 0.00 0.00 0.00 69 1023.7
20210304152450 47 42 1.0 3.0 0.00 0.00 0.00 70 1023.7
20210304151404 47 42 0.0 0.0 0.00 0.00 0.00 70 1023.7
20210304150907 47 42 1.0 3.0 0.00 0.00 0.00 70 1023.7
20210304144435 46 11 0.0 3.0 0.00 0.00 0.00 71 1023.8
20210304143414 46 15 0.0 3.0 0.00 0.00 0.00 72 1023.8
20210304141923 45 350 0.0 0.0 0.00 0.00 0.00 73 1023.8
20210304141420 45 350 0.0 0.0 0.00 0.00 0.00 73 1023.7
20210304140908 44 350 0.0 0.0 0.00 0.00 0.00 73 1023.8
20210304140404 44 350 0.0 3.0 0.00 0.00 0.00 73 1023.8
20210304134906 44 350 3.0 5.0 0.00 0.00 0.00 73 1023.8
20210304134406 44 337 0.0 3.0 0.00 0.00 0.00 73 1023.8
20210304133407 44 337 1.0 3.0 0.00 0.00 0.00 73 1023.8
20210304132052 44 337 3.0 5.0 0.00 0.00 0.00 72 1023.8
20210304131405 44 346 3.0 6.0 0.00 0.00 0.00 72 1023.8
20210304130908 45 34 1.0 5.0 0.00 0.00 0.00 72 1023.8
20210304130424 45 57 2.0 6.0 0.00 0.00 0.00 72 1023.8
20210304125023 44 59 1.0 3.0 0.00 0.00 0.00 72 1023.9
20210304124404 44 59 1.0 3.0 0.00 0.00 0.00 72 1023.9
20210304123904 44 58 2.0 5.0 0.00 0.00 0.00 73 1024.0
20210304123405 44 57 1.0 3.0 0.00 0.00 0.00 73 1024.0
20210304120904 44 62 2.0 5.0 0.00 0.00 0.00 73 1024.2
20210304120408 44 50 2.0 9.0 0.00 0.00 0.00 73 1024.2
20210304114404 43 66 2.0 5.0 0.00 0.00 0.00 73 1024.1
20210304113926 43 35 3.0 12.0 0.00 0.00 0.00 73 1024.0
20210304113405 42 34 4.0 7.0 0.00 0.00 0.00 74 1024.0
20210304112100 42 47 3.0 6.0 0.00 0.00 0.00 73 1024.0
20210304110443 42 59 5.0 8.0 0.00 0.00 0.00 74 1024.0
20210304105410 42 73 2.0 9.0 0.00 0.00 0.00 74 1024.1
20210304103904 42 19 2.0 3.0 0.00 0.00 0.00 73 1024.1
20210304100414 41 51 4.0 7.0 0.00 0.00 0.00 73 1023.8
20210304094945 41 40 1.0 7.0 0.00 0.00 0.00 73 1023.8
20210304094405 41 29 3.0 6.0 0.00 0.00 0.00 73 1023.8
20210304093405 41 40 3.0 5.0 0.00 0.00 0.00 73 1023.8
20210304091425 41 45 2.0 5.0 0.00 0.00 0.00 73 1023.6
20210304090414 40 45 1.0 6.0 0.00 0.00 0.00 73 1023.5
20210304084404 39 78 1.0 3.0 0.00 0.00 0.00 73 1023.5
20210304083907 39 78 2.0 5.0 0.00 0.00 0.00 73 1023.6
20210304083404 39 78 2.0 5.0 0.00 0.00 0.00 73 1023.5
20210304081947 39 80 2.0 3.0 0.00 0.00 0.00 72 1023.5
20210304073908 39 44 0.0 0.0 0.00 0.00 0.00 72 1023.0
20210304073405 39 44 0.0 3.0 0.00 0.00 0.00 72 1023.0
20210304071405 38 57 2.0 5.0 0.00 0.00 0.00 72 1022.8
20210304070907 38 65 2.0 5.0 0.00 0.00 0.00 72 1022.7
20210304065010 38 44 2.0 3.0 0.00 0.00 0.00 71 1022.6
20210304063904 38 49 2.0 5.0 0.00 0.00 0.00 71 1022.6
20210304062251 38 53 2.0 3.0 0.00 0.00 0.00 70 1022.7
20210304061404 38 53 0.0 2.0 0.00 0.00 0.00 70 1022.6
20210304060908 38 53 0.0 3.0 0.00 0.00 0.00 70 1022.7
20210304060407 38 48 2.0 5.0 0.00 0.00 0.00 70 1022.7
20210304054929 38 46 1.0 5.0 0.00 0.00 0.00 70 1022.6
20210304054405 38 64 2.0 3.0 0.00 0.00 0.00 70 1022.6
20210304053407 38 64 0.0 3.0 0.00 0.00 0.00 70 1022.6
20210304051406 38 64 0.0 1.0 0.00 0.00 0.00 70 1022.5
20210304050904 38 64 0.0 3.0 0.00 0.00 0.00 70 1022.4
20210304044905 38 64 0.0 1.0 0.00 0.00 0.00 70 1022.5
20210304044405 38 64 1.0 3.0 0.00 0.00 0.00 70 1022.5
20210304043419 38 64 2.0 3.0 0.00 0.00 0.00 70 1022.4
20210304040904 38 55 0.0 3.0 0.00 0.00 0.00 70 1022.4
20210304040405 38 55 1.0 6.0 0.00 0.00 0.00 70 1022.4
20210304035035 38 44 1.0 6.0 0.00 0.00 0.00 70 1022.5
20210304033911 38 48 3.0 5.0 0.00 0.00 0.00 70 1022.5
20210304033451 38 37 1.0 5.0 0.00 0.00 0.00 70 1022.6
20210304030904 38 43 3.0 6.0 0.00 0.00 0.00 70 1022.6
20210304030408 38 56 2.0 6.0 0.00 0.00 0.00 70 1022.6
20210304023905 38 39 4.0 6.0 0.00 0.00 0.00 70 1022.6
20210304022044 38 69 3.0 6.0 0.00 0.00 0.00 70 1023.0
20210304021405 38 54 3.0 5.0 0.00 0.00 0.00 70 1023.0
20210304020406 38 59 2.0 6.0 0.00 0.00 0.00 70 1023.0
20210304014406 38 69 2.0 6.0 0.00 0.00 0.00 70 1023.2
20210304013404 38 69 2.0 7.0 0.00 0.00 0.00 71 1023.2
20210304011950 39 78 2.0 5.0 0.00 0.00 0.00 71 1023.2
20210304010919 39 69 5.0 7.0 0.00 0.00 0.00 71 1023.2
20210304010407 39 64 2.0 9.0 0.00 0.00 0.00 71 1023.2
20210304005053 39 56 3.0 9.0 0.00 0.00 0.00 70 1023.2
20210304004406 39 51 4.0 10.0 0.00 0.00 0.00 70 1023.2
20210304003905 39 63 3.0 6.0 0.00 0.00 0.00 70 1023.2
20210304003405 39 26 5.0 7.0 0.00 0.00 0.00 70 1023.2
20210304001407 39 52 2.0 6.0 0.00 0.00 0.00 70 1023.1
20210304000427 39 66 3.0 9.0 0.00 0.00 0.00 70 1023.2
20210303235838 39 24 2.0 5.0 0.00 0.00 0.00 70 1023.3
20210303234406 39 43 2.0 5.0 0.00 0.00 0.00 71 1023.2
20210303233905 39 53 3.0 6.0 0.00 0.00 0.00 71 1023.3
20210303233411 39 59 4.0 8.0 0.00 0.00 0.00 71 1023.3
20210303232204 39 41 3.0 5.0 0.00 0.00 0.00 71 1023.3
20210303231406 39 40 3.0 6.0 0.00 0.00 0.00 71 1023.3
20210303230905 39 38 3.0 6.0 0.00 0.00 0.00 71 1023.3
20210303230404 39 50 2.0 7.0 0.00 0.00 0.00 71 1023.2